Regional Weather Roundup
Issued by NWS

Home | Current Version | Previous Version | Graphics & Text | Print | Product List | Glossary On
Versions: 1 2 3 4 5 6 7 8 9 10 11 12 13 14 15 16 17 18 19 20 21 22 23 24 25 26 27 28 29 30 31 32 33 34 35 36 37 38 39 40 41 42 43 44 45 46 47 48 49 50
000
ASUS43 KBIS 041302
RWRND

NORTH DAKOTA REGIONAL WEATHER ROUNDUP
NATIONAL WEATHER SERVICE BISMARCK ND
700 AM CST SUN DEC 04 2016

NOTE: "FAIR" INDICATES FEW OR NO CLOUDS BELOW 12,000 FEET WITH NO
SIGNIFICANT WEATHER AND/OR OBSTRUCTIONS TO VISIBILITY.


NDZ001>003-009>011-017-041400-
NORTHWEST NORTH DAKOTA

CITY           SKY/WX    TMP DP  RH WIND       PRES   REMARKS
WILLISTON      CLEAR     21  18  88 SW7       29.76S WCI  12
MINOT          CLOUDY    27  24  89 W14       29.70S WCI  16
MINOT AFB      FLURRIES  26  23  89 NW16      29.69S WCI  13
$$

NDZ018>021-031>035-040>046-041400-
SOUTHWEST NORTH DAKOTA

CITY           SKY/WX    TMP DP  RH WIND       PRES   REMARKS
BISMARCK       CLOUDY    32  28  85 W13G21    29.76S
DICKINSON      CLEAR     20  16  84 W14       29.75F WCI   7
GARRISON         N/A     29  26  89 W8        29.71F
HETTINGER ARPT CLEAR     20  15  81 NW9       29.81S WCI   9
$$

NDZ004>008-012>016-024-026-027-054-041400-
NORTHEAST NORTH DAKOTA

CITY           SKY/WX    TMP DP  RH WIND       PRES   REMARKS
GRAND FORKS    CLOUDY    34  32  92 S14       29.71
GRND FRKS AFB  CLOUDY    33  33  98 S9        29.70F
DEVILS LAKE    CLOUDY    26  24  92 W18       29.68R WCI  13
$$

NDZ022-023-025-028>030-036>039-047>053-041400-
SOUTHEAST NORTH DAKOTA

CITY           SKY/WX    TMP DP  RH WIND       PRES   REMARKS
FARGO          LGT SNOW  34  32  92 S10       29.75F FOG
JAMESTOWN      CLOUDY    33  31  92 W7        29.70F
$$





USA.gov is the U.S. government's official web portal to all federal, state and local government web resources and services.